📊 Raw Sensor Data
Showing records 37926 to 37950 of 84,921 total
| ID | Distance (ft) | Battery V | Battery A | Int Temp (°F) | Int Humid (%) | Ext Temp (°F) | Solar V | RSSI | SNR | Time Stamp |
|---|---|---|---|---|---|---|---|---|---|---|
| 47008 | 15.2 | 3.86 | -6 | 62 | 43 | 61 | 4.50 | -70 | 9 | 07/22/2025 07:30 AM |
| 47007 | 15.2 | 3.96 | 0 | 62 | 43 | 61 | 4.50 | -72 | 8 | 07/22/2025 07:15 AM |
| 47006 | 15.2 | 3.92 | 8 | 60 | 43 | 62 | 4.50 | -68 | 7 | 07/22/2025 06:45 AM |
| 47005 | 15.1 | 3.87 | 0 | 59 | 43 | 60 | 4.50 | -68 | 7 | 07/22/2025 06:30 AM |
| 47004 | 15.1 | 3.85 | -10 | 59 | 43 | 60 | 4.10 | -69 | 8 | 07/22/2025 06:15 AM |
| 47003 | 15.1 | 3.85 | -10 | 59 | 43 | 59 | 1.60 | -70 | 8 | 07/22/2025 06:00 AM |
| 47002 | 15.1 | 3.87 | -5 | 58 | 44 | 59 | 1.00 | -68 | 7 | 07/22/2025 05:45 AM |
| 47001 | 15.1 | 3.87 | -5 | 58 | 44 | 59 | 0.00 | -70 | 8 | 07/22/2025 05:30 AM |
| 47000 | 15.1 | 3.87 | -5 | 58 | 44 | 59 | 0.00 | -69 | 9 | 07/22/2025 05:00 AM |
| 46999 | 15.1 | 3.87 | -5 | 59 | 44 | 59 | 0.10 | -68 | 8 | 07/22/2025 04:45 AM |
| 46998 | 15.1 | 3.76 | -5 | 59 | 44 | 59 | 0.00 | -68 | 8 | 07/22/2025 04:30 AM |
| 46997 | 15.1 | 3.87 | -5 | 59 | 44 | 59 | 0.10 | -68 | 8 | 07/22/2025 04:15 AM |
| 46996 | 15.1 | 3.87 | -5 | 59 | 44 | 59 | 0.00 | -71 | 8 | 07/22/2025 04:00 AM |
| 46995 | 15.2 | 3.87 | -5 | 59 | 44 | 59 | 0.00 | -69 | 7 | 07/22/2025 03:45 AM |
| 46994 | 15.2 | 3.87 | -5 | 59 | 44 | 59 | 0.00 | -70 | 8 | 07/22/2025 03:30 AM |
| 46993 | 15.1 | 3.88 | -5 | 59 | 44 | 60 | 0.00 | -70 | 8 | 07/22/2025 03:15 AM |
| 46992 | 15.2 | 3.88 | -5 | 59 | 44 | 59 | 0.00 | -69 | 8 | 07/22/2025 03:00 AM |
| 46991 | 15.2 | 3.87 | -5 | 59 | 44 | 60 | 0.00 | -69 | 8 | 07/22/2025 02:45 AM |
| 46990 | 15.2 | 3.73 | -5 | 59 | 44 | 60 | 0.00 | -67 | 8 | 07/22/2025 02:30 AM |
| 46989 | 15.1 | 3.73 | -5 | 59 | 44 | 60 | 0.00 | -69 | 8 | 07/22/2025 02:15 AM |
| 46988 | 15.2 | 3.73 | -5 | 59 | 44 | 60 | 0.00 | -68 | 8 | 07/22/2025 02:00 AM |
| 46987 | 15.2 | 3.73 | -5 | 59 | 44 | 60 | 0.00 | -68 | 8 | 07/22/2025 01:45 AM |
| 46986 | 15.2 | 3.73 | -5 | 60 | 44 | 60 | 0.00 | -70 | 8 | 07/22/2025 01:30 AM |
| 46985 | 15.2 | 3.73 | -5 | 60 | 44 | 60 | 0.00 | -69 | 8 | 07/22/2025 01:15 AM |
| 46984 | 15.2 | 3.73 | -5 | 60 | 44 | 60 | 0.00 | -70 | 8 | 07/22/2025 01:00 AM |